Dewpoint
41 41 41 41 41 41 40 40 40 39 39 39 39 40 40 39 38 38 39 38 37 37 38 38 38 38 39 42 42 42 41 41 41 41 41 41 41 41 41 41 41 40 40 40 40 39 39 39 39 39 39 39 38 38 38 38 39 39 39 39 40 40 40 41 41 41 41 41 41 41 41 41 41 41 41 41 42 42 42 42 42 43 43 43 43 43
41 41 41 41 41 40 39 39 39 39 39 38 39 39 38 37 36 36 36 36 36 36 36 36 35 35 35 40 41 41 41 41 41 41 41 41 40 40 40 40 40 40 40 39 39 39 39 38 38 38 38 37 37 37 37 37 37 37 37 37 37 38 38 38 38 38 39 39 39 39 39 39 40 40 41 41 41 41 41 41 42 42 42 42 42 43
40 40 40 41 40 39 39 39 39 39 39 38 38 37 37 36 36 35 35 35 34 34 34 33 33 33 33 37 39 40 40 40 40 40 40 40 40 40 40 40 40 40 39 39 38 38 38 38 37 37 37 36 36 36 36 36 36 36 35 35 36 36 36 36 36 36 36 36 36 36 36 37 38 39 39 40 41 41 41 41 41 41 41 42 42 42
39 39 39 40 40 39 39 39 38 38 38 37 36 35 36 36 35 34 34 33 33 33 32 32 31 32 32 34 37 40 40 40 40 40 39 39 39 39 39 39 39 39 39 38 38 38 37 37 37 36 36 36 36 35 35 35 34 34 34 34 34 34 34 35 35 35 35 35 35 35 35 36 36 37 38 39 40 40 40 40 40 41 41 41 41 42
39 39 39 39 38 38 38 38 38 37 36 35 34 33 34 34 33 33 33 33 33 32 32 30 29 29 31 32 36 39 39 39 39 39 39 39 39 39 39 39 39 38 38 38 37 37 36 36 36 35 35 35 34 34 34 34 33 33 33 33 33 33 33 34 34 34 34 34 34 34 34 35 35 36 36 37 38 39 39 40 40 40 40 40 41 41
38 38 38 38 37 37 36 37 37 36 35 33 32 32 32 32 32 32 31 32 32 32 31 29 27 27 27 30 34 38 38 38 39 39 39 38 38 38 38 38 38 37 37 37 36 36 36 35 34 34 33 33 33 33 33 33 33 33 33 33 33 33 33 33 33 33 33 33 33 33 34 34 34 34 35 36 36 37 38 39 39 39 39 40 40 40
37 37 37 36 36 36 36 36 36 36 34 34 33 32 32 31 30 29 28 28 28 29 29 29 27 25 24 27 32 36 36 37 38 39 39 39 38 37 37 37 36 36 36 36 35 34 34 33 33 32 32 32 32 33 33 33 33 33 33 33 33 32 32 32 32 32 32 33 33 33 33 33 33 33 33 34 35 36 37 37 38 38 39 39 39 39
36 36 36 35 35 35 35 34 34 33 33 33 33 33 32 32 30 28 27 26 26 27 28 29 27 25 23 24 27 31 32 33 34 35 36 37 38 37 37 36 35 35 34 33 33 32 32 32 32 32 32 32 32 32 32 33 33 33 33 32 32 32 32 32 32 32 32 32 32 33 33 33 33 33 33 33 34 34 35 36 37 37 38 38 38 38
36 36 35 35 35 35 34 33 32 30 30 32 32 32 32 32 30 29 27 26 26 26 26 27 27 26 24 23 24 27 32 32 32 32 32 33 34 35 37 36 35 34 32 32 32 31 31 31 31 31 31 31 31 31 32 32 32 32 32 32 32 31 31 31 31 32 32 32 32 33 33 33 33 32 32 32 32 33 34 35 35 36 36 37 37 37
36 36 35 34 33 33 34 32 30 28 27 28 29 29 30 30 30 29 28 26 25 25 24 25 25 25 24 23 23 26 28 32 33 34 34 32 32 34 36 35 35 34 32 32 32 31 30 30 30 30 30 30 30 29 29 30 30 31 31 31 30 30 30 31 31 32 32 32 32 33 33 33 32 32 32 32 32 32 32 33 34 35 35 36 36 36
36 35 34 33 32 31 31 30 28 27 26 26 26 26 27 27 28 29 28 26 25 24 23 23 23 23 23 23 24 25 25 25 26 28 31 30 31 32 32 32 33 33 32 33 33 32 31 31 30 30 30 29 28 28 27 28 28 29 29 29 29 29 30 30 31 31 32 32 32 33 33 33 32 32 32 32 32 32 32 32 32 33 34 34 35 35
34 33 32 32 31 29 28 27 27 27 26 27 27 27 27 24 24 26 28 26 24 23 23 23 22 21 21 21 23 23 23 22 22 22 22 23 24 26 26 26 28 29 30 32 32 33 32 32 31 30 30 29 28 27 27 28 28 27 27 28 28 29 30 30 31 31 31 32 32 33 33 33 33 33 32 32 32 32 32 32 32 32 32 33 33 34
32 32 31 31 30 30 28 28 28 28 28 28 28 28 28 24 22 22 24 24 23 23 21 21 21 21 20 20 21 22 21 21 21 21 20 20 20 20 20 21 21 22 23 23 25 28 33 33 32 31 31 30 29 28 27 28 28 27 27 28 29 29 30 30 31 31 31 32 32 32 33 33 33 33 33 33 32 32 32 32 32 32 32 32 32 33
32 31 31 32 30 29 28 28 29 30 29 27 27 26 25 23 21 21 22 22 21 20 19 20 20 21 21 20 20 20 20 21 21 21 20 20 18 18 18 19 20 20 19 19 20 23 32 30 28 27 31 32 31 30 31 29 28 27 28 29 30 30 31 31 31 32 32 32 32 32 32 33 33 33 33 32 32 32 32 32 32 32 32 32 32 33
32 32 32 32 30 28 26 27 28 29 27 24 23 23 22 21 21 22 23 23 21 19 20 20 20 20 20 21 20 19 19 20 21 21 21 20 18 16 16 19 20 19 19 19 19 22 27 25 23 23 25 27 29 30 32 33 31 29 30 30 31 31 31 31 32 32 32 32 32 32 32 32 32 32 32 32 32 32 32 32 32 32 32 32 33 33
31 32 32 31 29 27 24 25 26 27 24 22 22 22 22 22 22 21 22 21 20 19 21 21 21 20 21 21 21 20 19 20 20 20 21 21 19 17 14 18 19 19 19 20 20 20 21 20 19 20 21 26 29 31 31 31 31 30 30 31 31 31 31 32 32 32 32 32 32 32 32 32 32 32 32 32 32 32 32 32 32 32 32 32 33 33
29 30 30 30 28 26 22 23 23 23 22 21 21 21 22 21 20 20 20 19 19 19 21 21 21 20 19 21 21 21 19 19 19 19 20 21 20 18 15 18 20 20 19 20 19 19 19 20 20 20 22 28 31 31 30 30 30 30 31 31 31 31 31 31 32 32 32 32 32 32 32 32 32 32 32 32 32 32 32 32 32 32 32 32 33 33
27 27 27 28 27 25 22 22 21 20 20 21 20 19 18 18 18 18 18 19 19 19 18 18 19 19 18 19 20 19 18 19 19 19 19 20 20 18 15 17 19 19 18 19 19 18 18 18 18 20 24 30 32 31 29 29 29 30 30 30 31 31 31 31 31 31 32 32 32 32 32 32 32 32 32 32 32 32 32 32 32 32 32 32 32 32
25 24 26 26 25 23 22 22 21 21 21 21 21 20 20 18 18 18 18 18 18 18 18 18 17 16 16 18 19 19 17 18 19 20 19 20 19 18 15 17 19 19 18 19 19 19 18 17 20 26 31 32 31 30 29 28 29 29 30 30 30 31 31 31 31 31 32 32 32 32 32 32 32 32 32 32 32 32 32 32 32 32 32 32 32 32
26 24 25 26 25 23 23 23 23 23 23 23 23 22 20 19 18 18 17 16 16 16 16 17 17 16 16 17 18 18 16 18 19 19 18 18 18 17 14 16 18 18 17 18 18 17 16 15 18 22 29 30 30 29 28 28 28 29 29 30 30 30 30 30 30 31 31 32 32 32 32 31 31 32 32 32 32 32 32 32 33 33 33 33 33 32
27 26 25 25 26 26 25 25 25 25 26 25 23 21 20 19 19 18 17 16 16 15 16 18 18 18 17 18 18 18 15 18 20 19 17 16 17 17 15 14 15 16 17 18 17 16 15 14 15 18 27 30 31 29 28 28 28 28 29 29 29 29 29 29 30 31 31 32 32 32 31 31 31 31 32 32 32 32 32 33 34 34 35 35 34 34
30 27 23 23 25 27 28 26 26 27 28 26 24 23 22 21 20 19 17 17 17 18 18 19 19 18 18 18 18 18 14 18 19 19 17 17 18 18 16 14 14 16 18 17 16 15 14 15 16 19 27 31 31 30 28 28 28 28 29 29 29 29 29 29 30 30 31 31 31 31 31 31 31 31 31 31 31 32 32 33 33 34 36 36 36 36
28 26 23 22 23 25 26 26 26 27 28 26 26 25 23 23 22 21 20 19 19 19 18 18 18 18 17 17 17 17 16 18 19 19 19 18 18 18 16 15 15 17 18 17 16 15 15 16 18 20 27 30 31 30 29 28 28 29 29 28 28 28 29 29 30 30 31 31 31 31 31 31 30 30 31 31 31 31 32 32 32 33 34 35 36 36
24 23 22 21 22 22 24 25 25 24 24 23 22 21 21 22 22 21 21 20 19 18 17 17 18 18 17 18 18 17 17 18 18 18 19 19 19 18 15 15 17 18 19 18 17 15 16 17 18 20 23 27 29 30 30 29 29 29 29 28 28 28 29 30 30 30 31 31 31 31 31 31 31 31 31 31 31 31 31 31 32 32 32 32 33 34
23 23 23 23 24 25 25 26 26 25 23 22 22 23 23 23 23 22 21 20 19 18 18 18 18 18 16 19 19 18 16 16 17 18 18 18 17 16 14 14 16 17 18 17 16 15 16 18 18 18 19 23 27 30 31 31 30 29 29 28 28 28 29 29 30 30 30 30 30 30 31 31 31 31 31 31 31 31 31 31 31 31 32 32 32 32
27 27 27 28 30 31 31 31 30 29 27 26 25 25 25 25 24 23 22 21 20 19 20 18 17 16 15 15 16 18 17 16 16 17 18 18 17 16 14 14 14 15 18 16 16 17 18 19 18 18 17 19 24 29 32 31 30 29 29 28 28 28 29 29 29 29 29 29 30 30 30 30 30 31 31 30 30 30 31 31 31 31 31 31 32 32
33 33 33 34 34 33 33 33 32 32 32 30 28 27 26 24 23 23 21 19 18 18 19 17 16 15 15 15 15 16 17 18 17 16 16 17 18 17 16 14 14 14 16 16 17 19 22 22 20 18 18 17 20 26 31 31 30 29 29 28 28 28 28 28 28 29 29 29 29 29 29 29 30 30 30 30 30 30 30 30 31 31 31 31 31 32
34 34 34 34 34 34 34 33 33 33 33 32 32 30 27 25 23 22 21 18 18 18 18 17 16 16 16 15 15 15 15 17 17 16 16 18 18 17 15 13 12 13 14 16 18 20 23 21 18 17 16 17 19 23 27 30 30 30 29 29 29 28 28 28 28 29 29 29 29 29 29 29 29 29 29 29 29 30 30 30 30 30 30 30 32 33
33 34 34 33 33 33 33 33 33 33 33 33 32 31 28 25 23 22 21 19 19 19 19 18 17 16 15 14 14 14 15 17 18 18 17 18 18 16 14 13 12 12 14 15 16 17 17 18 16 14 14 19 21 21 22 26 27 28 29 30 30 29 29 28 28 29 29 29 29 29 29 29 29 29 29 29 29 29 29 30 30 30 30 30 31 31
28 29 29 29 29 30 30 30 31 32 33 33 32 31 29 25 23 23 21 21 20 20 19 18 17 16 14 14 14 14 14 16 17 18 18 18 17 15 13 14 12 12 13 15 15 15 14 17 17 16 16 20 20 19 18 20 22 23 24 27 28 29 29 28 28 28 28 28 29 29 29 29 29 29 29 28 29 29 29 29 29 30 30 30 30 29
23 23 22 21 22 23 24 25 27 29 31 32 32 31 29 26 23 22 22 22 21 20 18 18 17 16 15 15 14 14 14 14 17 19 17 18 17 15 13 14 13 12 12 14 15 14 14 15 17 18 18 18 17 18 18 20 20 19 19 22 24 26 29 28 27 27 27 27 28 28 28 28 28 28 28 28 28 28 28 29 29 29 30 29 29 29
21 21 20 19 19 19 21 21 22 23 24 26 27 29 29 27 24 23 23 22 21 21 19 18 17 16 16 17 16 15 14 14 18 21 18 17 15 13 11 12 12 12 12 13 14 14 14 14 16 17 16 16 16 17 19 21 20 18 18 20 20 23 27 27 27 27 27 27 27 27 28 28 28 28 28 28 28 28 28 29 29 29 29 29 28 28
21 20 19 19 19 18 18 18 18 19 21 21 22 23 25 26 26 25 23 22 22 21 20 19 17 16 15 16 16 16 16 15 18 22 22 18 15 13 11 11 11 11 12 12 12 12 12 12 13 14 15 15 16 16 18 20 20 18 18 18 18 19 24 25 25 25 27 27 27 27 28 28 28 28 28 28 28 28 28 28 29 29 29 29 29 29
21 21 19 19 18 18 18 17 18 18 19 20 21 21 21 23 24 25 23 22 22 22 21 20 18 17 16 15 15 15 16 17 20 24 27 20 16 13 11 11 11 11 11 12 11 10 10 10 10 12 14 15 16 17 17 18 18 18 15 16 17 18 19 21 22 23 23 24 24 23 25 25 27 28 28 29 29 29 29 29 29 29 29 30 30 30
20 20 19 18 18 18 18 18 18 18 19 19 20 21 21 21 22 23 23 23 22 21 21 21 20 19 18 16 16 16 17 16 20 25 28 22 17 14 13 12 12 12 12 11 11 11 11 11 12 13 14 15 16 17 17 15 15 16 14 15 16 16 17 17 18 19 20 20 20 20 20 21 23 25 27 28 29 29 29 29 29 29 29 30 30 31
20 20 19 17 17 18 18 18 18 18 18 18 18 18 20 19 19 20 20 21 22 22 22 21 20 20 19 18 18 17 17 16 19 24 28 22 18 16 15 14 14 13 14 13 11 10 11 12 13 14 15 15 15 16 17 15 15 15 15 16 16 16 16 16 16 16 17 18 18 19 18 19 21 23 25 27 29 29 29 29 29 29 29 29 29 30
20 20 18 16 16 17 18 17 17 17 17 17 16 17 18 17 18 18 17 17 18 20 22 22 22 21 21 18 18 18 18 17 18 22 27 21 18 18 17 16 16 16 15 14 13 11 12 13 14 14 14 14 14 14 15 15 15 15 15 16 16 16 15 16 16 16 15 18 19 20 20 21 22 23 25 27 28 27 28 28 28 29 29 29 29 29
20 20 18 16 15 15 16 16 17 17 17 17 16 16 16 15 15 15 15 14 14 15 18 19 19 20 23 23 20 18 17 16 16 18 23 19 18 18 18 16 17 18 16 15 14 13 13 14 14 14 13 12 14 16 17 16 15 15 15 15 15 15 15 15 15 15 16 18 20 22 24 23 23 21 21 23 23 23 23 23 26 28 28 28 28 28
19 19 18 17 16 16 16 16 16 17 17 17 17 16 14 14 15 15 14 14 14 14 14 16 17 17 16 17 20 21 20 17 15 15 17 16 16 18 19 17 17 17 16 14 14 14 15 14 13 13 13 11 12 13 14 13 12 13 13 15 15 15 15 15 15 16 17 18 20 22 23 20 18 18 17 17 18 19 20 20 23 25 24 23 24 27
19 18 18 20 19 17 16 17 17 17 16 17 18 18 17 17 16 15 15 16 16 15 12 13 14 14 15 17 19 21 22 18 17 16 14 13 14 16 19 18 17 17 16 13 13 14 16 15 15 15 16 13 13 13 13 11 12 14 17 16 16 16 18 18 16 15 16 16 17 18 18 16 16 17 18 17 17 18 19 18 19 21 23 20 19 20
19 19 18 20 20 20 20 20 19 18 17 17 17 17 18 18 17 17 18 18 17 16 16 16 16 15 14 12 12 13 16 17 18 17 10 11 12 15 19 19 18 17 15 14 13 13 16 15 15 15 15 14 14 16 17 15 17 19 21 18 17 17 18 20 19 18 16 15 15 16 18 18 20 21 20 20 19 18 18 18 17 18 21 18 17 16
23 22 20 20 20 19 18 18 18 18 18 17 17 17 18 18 17 16 16 16 16 15 15 15 16 16 15 14 13 10 10 12 15 17 13 11 11 14 17 18 19 18 17 15 14 13 15 16 16 15 15 14 14 15 16 16 18 19 20 18 18 19 21 20 16 13 14 14 13 14 18 19 19 19 19 19 18 18 20 18 19 21 23 19 15 14
23 23 22 21 19 19 20 20 20 20 19 17 17 17 17 17 18 18 18 16 15 16 16 15 15 15 15 14 14 13 11 9 10 14 16 13 11 12 15 17 18 18 18 16 14 14 14 17 17 17 15 14 14 15 17 17 17 18 18 19 18 18 17 16 13 11 12 14 14 14 15 17 18 18 18 18 18 18 18 21 23 26 26 23 18 15
23 23 21 19 18 18 20 19 19 18 18 17 17 17 16 16 18 19 18 16 15 15 14 13 13 14 14 14 14 14 13 11 9 10 14 16 14 13 14 15 15 16 18 17 16 14 13 15 17 17 16 16 16 17 18 18 17 17 16 18 19 18 17 17 15 14 15 16 17 16 14 16 16 15 16 16 16 16 16 17 17 18 22 21 19 18
21 21 20 19 19 19 19 19 18 18 18 18 17 17 16 16 18 19 18 15 15 14 14 14 14 14 14 13 13 13 12 12 13 13 13 18 20 21 18 16 15 15 16 18 18 18 16 16 16 16 16 17 18 18 18 18 18 19 20 21 21 21 20 19 19 18 18 18 18 17 14 14 14 14 14 14 14 14 15 15 16 17 18 18 18 18
20 20 19 19 19 19 21 20 19 18 17 17 17 17 16 16 17 18 18 16 15 14 13 14 15 16 15 15 14 13 13 13 14 15 15 14 15 17 20 20 19 18 17 18 18 18 18 18 18 17 18 18 19 19 19 19 19 19 20 21 21 21 20 20 19 18 18 18 18 17 15 14 13 14 16 16 15 15 14 15 16 17 17 17 17 18
20 20 19 19 20 20 21 21 19 18 18 18 18 18 17 15 16 17 18 17 16 15 16 16 16 15 15 15 14 14 14 14 14 14 14 15 15 15 16 18 19 20 19 18 18 18 19 20 20 19 19 19 19 19 20 20 20 20 19 20 20 20 19 19 18 18 17 18 18 16 12 12 14 14 16 15 15 15 14 15 16 17 18 18 18 18
22 22 22 21 21 21 21 21 20 19 18 19 18 18 18 16 16 16 16 16 17 17 18 15 14 15 15 15 15 15 16 15 14 14 14 14 14 14 14 16 18 20 20 20 20 21 21 21 21 21 21 20 19 19 20 20 20 20 20 20 20 20 19 19 18 17 16 17 16 14 13 14 15 15 15 15 15 15 15 15 16 17 18 19 19 19
23 23 23 22 22 21 20 20 19 18 18 18 18 18 16 17 19 20 16 15 16 17 17 16 15 15 15 14 15 16 18 17 16 15 14 13 13 13 14 15 17 19 20 21 22 22 22 23 23 23 22 22 21 20 20 20 20 20 20 20 20 20 20 20 19 18 17 15 13 11 11 14 15 16 16 16 16 16 16 16 16 17 18 18 19 19
24 24 23 23 22 21 20 20 19 18 18 18 18 18 15 15 17 18 17 16 16 16 16 16 16 15 15 15 15 16 17 16 15 14 13 12 13 13 14 14 17 19 20 20 21 21 22 22 23 24 25 24 23 22 21 20 20 20 20 20 20 20 20 20 20 19 18 17 14 11 10 12 14 15 16 18 18 18 17 17 17 18 18 17 17 18
25 24 23 23 22 22 21 20 20 20 20 20 20 19 18 16 15 15 15 16 15 15 15 15 15 15 16 16 16 16 17 15 15 15 14 14 13 14 14 15 17 18 18 18 19 19 19 19 20 21 23 26 26 25 23 22 21 21 20 20 20 20 20 19 19 19 20 19 16 14 12 13 14 14 16 18 19 19 18 17 16 16 16 15 15 17